ORBCOMM FM 16 DEB, 44024

Orbit data source: Space-Track

ORBCOMM FM 16 DEB, 44024 is space debris in LEO originally from a launch on Sun, 02 Aug 1998 UTC launched from the Pegasus Launch, Eastern Range Air Space (ERAS). Debris objects in space refer to the collection of defunct objects orbiting the Earth. Examples of debris include non-operational satellites, rocket bodies, and fragments generated from explosions, collisions, or faulty payload assembly.

Loading next visibility...
Identifier
44024, 1998-046T
Orbit
LEO
Country
Flag of USUS / ORB
Related business
Manufacturer
OSC-Germantown
Mission
Spacecraft
Bus & Motor
MICROSTAR, Unknown motor
Mass
Unknown
Launch date (UTC)
1998-08-02 (28 years ago)
Launch vehicle
Unknown
Launch site
Pegasus Launch, Eastern Range Air Space (ERAS)
Object type
Payload
Rocket body
Debris
Shape & HBR
Unknown shape, 0.1 m
Radar Cross Section
Medium (>0.1 m² and <1 m²)

Expand to show TLE details & history
Last TLE update: 2 days ago

TLE from 2 days ago
0 ORBCOMM FM 16 DEB
1 44024U 98046T   26171.22684303  .00000351  00000-0  15961-3 0  9990
2 44024  44.9942 228.2729 0005453 322.8897  37.1574 14.38583674392107
Epoch: 2026-06-20T05:26Z
TLE epoch observation values (Epoch: 2026-06-20T05:26:39.237Z)
Latitude
-0.00002°
Longitude
-121.8351°
Altitude
760.078 km
Speed
7.477 km/s
True Right ascension
15h 13m 05s
True Declination
0° 00' 00"
Sunlit
Object was in full shadow at epoch
Visualization orbit readout
Latitude
Unknown
Longitude
Unknown
Altitude
Unknown
Speed
Unknown
Apparent Right ascension
Unknown
Apparent Declination
Unknown
Sunlit
N/A
Visualization observer readout
Local Sidereal Time
21:42:46
Azimuth
Unknown
Elevation
Unknown
Doppler factor
Unknown
Orbital elements
Apogee altitude
768.624 km
Perigee altitude
760.834 km
Semi-major axis
7,142.866 km
Eccentricity
0.00055
Inclination
44.9942°
RAAN
228.2729°
Arg. of periapsis
322.8897°
True anomaly
37.19516°
Mean anomaly
37.1574°
Eccentric anomaly
37.17628°
Mean motion
3.59529 °/min
Orbital period
100.13 mins
BSTAR
0.00015961
Loading maneuver chart data...
Computing Atmospheric mass density...

Documentation

Showing up to 5 results
|